DW0529 Weather Reports


Display with metric or nautical units.
time (UTC)temp
F
wind
direction
speed
MPH
gust
MPH
rain 1hr
in
rain 24hr
in
rain mn
in
humidity
%
barometer
mb
20260906100223 73 218 0.0 0.0 0.00 0.00 0.00 39 968.5
20260906095239 73 218 0.0 0.0 0.00 0.00 0.00 40 968.5
20260906094255 73 218 0.0 0.0 0.00 0.00 0.00 39 968.5
20260906093244 73 218 0.0 0.0 0.00 0.00 0.00 38 968.4
20260906091043 73 218 0.0 0.0 0.00 0.00 0.00 38 968.5
20260906090049 73 218 0.0 0.0 0.00 0.00 0.00 38 968.5
20260906085044 73 218 0.0 0.0 0.00 0.00 0.00 37 968.6
20260906084054 73 218 0.0 0.0 0.00 0.00 0.00 37 968.6
20260906083037 73 214 0.0 0.0 0.00 0.00 0.00 36 968.8
20260906082045 73 214 0.0 0.0 0.00 0.00 0.00 36 968.8
20260906081032 73 214 0.0 0.0 0.00 0.00 0.00 37 968.9
20260906080014 73 214 0.0 0.0 0.00 0.00 0.00 37 968.8
20260906074948 73 214 0.0 0.0 0.00 0.00 0.00 37 968.8
20260906073931 73 214 0.0 0.0 0.00 0.00 0.00 37 968.9
20260906072920 73 214 0.0 0.0 0.00 0.00 0.00 37 968.8
20260906071849 73 214 0.0 0.0 0.00 0.00 0.00 37 968.7
20260906070828 73 214 0.0 0.0 0.00 0.00 0.00 38 968.7
20260906065849 73 214 0.0 0.0 0.00 0.00 0.00 38 968.7
20260906064835 74 214 0.0 0.0 0.00 0.00 0.00 38 968.7
20260906063832 74 214 0.0 0.0 0.00 0.00 0.00 37 968.8
20260906061614 74 214 0.0 0.0 0.00 0.00 0.00 38 968.9
20260906060628 75 214 0.0 0.0 0.00 0.00 0.00 38 968.9
20260906055639 75 214 0.0 0.0 0.00 0.00 0.00 37 968.8
20260906054606 75 214 0.0 0.0 0.00 0.00 0.00 37 968.8
20260906053538 75 214 0.0 1.0 0.00 0.00 0.00 38 968.9
20260906052518 74 214 0.0 0.0 0.00 0.00 0.00 39 968.9
20260906050335 74 214 0.0 0.0 0.00 0.00 0.00 39 969.0
20260906045312 74 214 0.0 0.0 0.00 0.00 0.00 38 969.0
20260906041955 74 214 0.0 0.0 0.00 0.00 0.00 32 969.1
20260906040922 75 214 0.0 0.0 0.00 0.00 0.00 30 969.0
20260906035905 75 214 0.0 0.0 0.00 0.00 0.00 31 968.9
20260906034901 74 0 0.0 0.0 0.00 0.00 0.00 30 968.9
20260906033902 73 0 0.0 0.0 0.00 0.00 0.00 30 968.8
20260906032857 74 0 0.0 1.0 0.00 0.00 0.00 37 968.6
20260906031832 73 0 0.0 0.0 0.00 0.00 0.00 32 968.5
20260906030841 74 0 0.0 0.0 0.00 0.00 0.00 40 968.4
20260906025815 74 204 0.0 0.0 0.00 0.00 0.00 37 968.5
20260906024754 75 204 0.0 0.0 0.00 0.00 0.00 40 968.3
20260906023812 75 204 0.0 0.0 0.00 0.00 0.00 40 968.3
20260906022820 75 204 0.0 2.0 0.00 0.00 0.00 37 968.4
20260906021759 76 204 0.0 1.0 0.00 0.00 0.00 39 968.3
20260906020745 76 204 1.0 4.0 0.00 0.00 0.00 37 968.3
20260906015732 77 217 1.0 4.0 0.00 0.00 0.00 37 968.3
20260906014702 79 177 0.0 4.0 0.00 0.00 0.00 35 968.2
20260906012523 81 213 1.0 5.0 0.00 0.00 0.00 30 968.3
20260906010356 82 188 2.0 6.0 0.00 0.00 0.00 27 968.1
20260906005400 83 206 0.0 4.0 0.00 0.00 0.00 31 968.3
20260906004406 83 227 1.0 6.0 0.00 0.00 0.00 27 968.3
20260906003401 83 175 2.0 7.0 0.00 0.00 0.00 23 968.2
20260906002339 84 263 2.0 7.0 0.00 0.00 0.00 24 968.2
20260906001401 84 240 2.0 6.0 0.00 0.00 0.00 20 968.2
20260906000348 83 196 2.0 7.0 0.00 0.00 0.00 20 968.2
20260905235349 82 168 2.0 7.0 0.00 0.00 0.00 21 968.3
20260905234330 83 211 2.0 7.0 0.00 0.00 0.00 22 968.3
20260905233302 84 238 2.0 7.0 0.00 0.00 0.00 25 968.2
20260905232256 84 215 1.0 7.0 0.00 0.00 0.00 27 968.2
20260905224920 85 215 1.0 7.0 0.00 0.00 0.00 29 968.5
20260905223935 85 304 2.0 7.0 0.00 0.00 0.00 28 968.5
20260905222922 85 228 2.0 6.0 0.00 0.00 0.00 26 968.6
20260905221923 86 248 1.0 7.0 0.00 0.00 0.00 25 968.6
20260905220924 86 225 2.0 7.0 0.00 0.00 0.00 25 968.8
20260905215853 86 194 2.0 7.0 0.00 0.00 0.00 23 969.0
20260905214858 86 174 2.0 7.0 0.00 0.00 0.00 24 968.9
20260905213831 85 161 2.0 7.0 0.00 0.00 0.00 26 969.0
20260905212800 85 169 2.0 8.0 0.00 0.00 0.00 28 969.1
20260905211759 85 254 2.0 8.0 0.00 0.00 0.00 28 969.1
20260905210742 85 236 1.0 6.0 0.00 0.00 0.00 27 969.2
20260905205758 85 148 1.0 7.0 0.00 0.00 0.00 27 969.1
20260905204807 86 295 1.0 7.0 0.00 0.00 0.00 27 969.3
20260905203801 86 211 2.0 6.0 0.00 0.00 0.00 28 969.3
20260905202726 85 202 2.0 7.0 0.00 0.00 0.00 25 969.3
20260905201744 84 223 2.0 7.0 0.00 0.00 0.00 28 969.3
20260905200734 85 211 2.0 6.0 0.00 0.00 0.00 35 969.5
20260905195728 85 14 1.0 5.0 0.00 0.00 0.00 36 969.6
20260905194653 86 84 1.0 4.0 0.00 0.00 0.00 30 969.8
20260905193703 85 174 1.0 4.0 0.00 0.00 0.00 33 969.7
20260905192702 84 188 0.0 5.0 0.00 0.00 0.00 28 969.9
20260905191717 83 166 1.0 5.0 0.00 0.00 0.00 31 970.1
20260905190656 83 185 0.0 5.0 0.00 0.00 0.00 28 970.2
20260905185636 83 214 0.0 5.0 0.00 0.00 0.00 29 970.2
20260905184635 83 129 0.0 4.0 0.00 0.00 0.00 28 970.3
20260905183636 82 157 1.0 5.0 0.00 0.00 0.00 32 970.3
20260905182701 81 175 0.0 6.0 0.00 0.00 0.00 29 970.5
20260905181633 80 216 1.0 6.0 0.00 0.00 0.00 30 970.6
20260905180655 80 275 1.0 5.0 0.00 0.00 0.00 32 970.6
20260905175642 79 296 1.0 5.0 0.00 0.00 0.00 31 970.6
20260905174700 78 210 0.0 5.0 0.00 0.00 0.00 40 970.4
20260905173648 78 165 0.0 4.0 0.00 0.00 0.00 41 970.4
20260905172629 78 222 0.0 4.0 0.00 0.00 0.00 44 970.3
20260905171617 77 244 0.0 2.0 0.00 0.00 0.00 45 970.2
20260905170603 76 238 0.0 5.0 0.00 0.00 0.00 48 970.1
20260905165608 76 259 0.0 5.0 0.00 0.00 0.00 48 970.1
20260905164633 75 217 0.0 2.0 0.00 0.00 0.00 49 970.1
20260905163643 74 196 0.0 0.0 0.00 0.00 0.00 51 970.0
20260905162609 73 196 0.0 0.0 0.00 0.00 0.00 54 970.0
20260905161545 71 196 0.0 0.0 0.00 0.00 0.00 56 970.0
20260905160548 69 196 0.0 0.0 0.00 0.00 0.00 65 969.9
20260905155540 67 196 0.0 0.0 0.00 0.00 0.00 77 969.9
20260905154544 65 196 0.0 0.0 0.00 0.00 0.00 89 969.9
20260905153607 63 196 0.0 0.0 0.00 0.00 0.00 92 969.8
20260905152610 62 196 0.0 0.0 0.00 0.00 0.00 94 969.8
20260905151556 61 196 0.0 0.0 0.00 0.00 0.00 96 969.8
20260905150533 61 196 0.0 0.0 0.00 0.00 0.00 96 969.7
20260905145547 61 196 0.0 0.0 0.00 0.00 0.00 96 969.6
20260905144523 62 196 0.0 0.0 0.00 0.00 0.00 97 969.5
20260905143530 62 0 0.0 0.0 0.00 0.00 0.00 97 969.4
20260905141351 61 0 0.0 0.0 0.00 0.00 0.00 97 969.3
20260905135157 61 0 0.0 0.0 0.00 0.00 0.00 96 969.1
20260905134221 61 0 0.0 0.0 0.00 0.00 0.00 96 969.0
20260905133216 61 0 0.0 0.0 0.00 0.00 0.00 96 968.7
20260905132216 61 0 0.0 0.0 0.00 0.00 0.00 96 968.4
20260905131210 61 0 0.0 0.0 0.00 0.00 0.00 96 968.4
20260905130142 61 0 0.0 0.0 0.00 0.00 0.00 95 968.3
20260905125206 62 0 0.0 0.0 0.00 0.00 0.00 96 968.5
20260905124147 61 0 0.0 0.0 0.00 0.00 0.00 95 968.5
20260905123135 61 0 0.0 0.0 0.00 0.00 0.00 95 968.4
20260905122121 61 0 0.0 0.0 0.00 0.00 0.00 95 968.5
20260905120000 62 196 0.0 0.0 0.00 0.00 0.00 95 968.5
20260905113845 62 0 0.0 0.0 0.00 0.00 0.00 94 968.6
20260905111709 62 0 0.0 0.0 0.00 0.00 0.00 94 968.6
20260905110644 62 0 0.0 0.0 0.00 0.00 0.00 93 968.6
20260905104508 62 196 0.0 0.0 0.00 0.00 0.00 93 968.7
20260905103450 62 0 0.0 0.0 0.00 0.00 0.00 92 968.7
20260905102458 63 0 0.0 0.0 0.00 0.00 0.00 91 968.8